User: anonymous   Login
Location: Unspecified
(0.0000°N, 0.0000°E)
Time: 01:29:44
(UTC+00:00)
Language:

USA 281 - Orbit

View from above orbital plane
View from above orbital plane
View from above satellite
View from above satellite

Ground track
Ground track

The orbit data is extracted from the following two-line orbital elements,

1 43145U 18005A   18265.10111791 0.00000000  00000-0  00000-0 0    07
2 43145 105.9915 177.1217 0006520 195.1318 164.8681 13.48024435    04
Epoch (UTC): 22 September 2018 02:25:36
Eccentricity: 0.0006520
inclination: 105.9915°
perigee height: 1074 km
apogee height: 1084 km
right ascension of ascending node: 177.1217°
argument of perigee: 195.1318°
revolutions per day: 13.48024435
mean anomaly at epoch: 164.8681°
orbit number at epoch: 0

The dashed part of the orbit path shows where the satellite is in the earth's shadow,  

DLR